{"data":{"norad_id":67200,"intl_designator":"2025-304J","name":"STARLINK-36270","alt_names":[],"object_type":"PAYLOAD","status":"ACTIVE","operator":null,"country":"US","launch_date":"2025-12-17","launch_site_code":"AFWTR","launch_vehicle":null,"mission":null,"orbit_class":"UNKNOWN","rcs_meters":null,"size_class":null,"mass_kg":null,"dimensions":null,"purposes":["comms"],"wikipedia_slug":null,"has_3d_model":false,"image_url":null,"decayed_at":null,"tle_current":{"epoch":"2026-05-24T23:33:49.551264Z","epoch_age_seconds":70467,"freshness":"FRESH","line1":"1 67200U 25304J   26144.98182351  .00002228  00000+0  19444-3 0  9991","line2":"2 67200  70.0021 342.0573 0002459 268.5080  91.5797 14.98337541 25314","mean_motion":14.98337541,"eccentricity":0.0002459,"inclination_deg":70.0021,"raan_deg":342.0573,"arg_perigee_deg":268.508,"mean_anomaly_deg":91.5797,"bstar":0.00019444,"rev_number":2531,"period_min":96.106515427688,"perigee_km":570.32352442424,"apogee_km":573.74161781932,"semimajor_km":6950.1695711218,"source":"CELESTRAK","updated_at":"2026-05-25T13:38:21.508524Z"}}}